{"data":{"norad_id":69526,"intl_designator":"2026-133U","name":"STARLINK-37438","alt_names":[],"object_type":"PAYLOAD","status":"ACTIVE","operator":null,"country":"US","launch_date":"2026-06-12","launch_site_code":"AFETR","launch_vehicle":null,"mission":null,"orbit_class":"UNKNOWN","rcs_meters":null,"size_class":null,"mass_kg":null,"dimensions":null,"purposes":["comms"],"wikipedia_slug":null,"has_3d_model":false,"image_url":null,"decayed_at":null,"tle_current":{"epoch":"2026-09-19T12:03:28.326816Z","epoch_age_seconds":111696,"freshness":"FRESH","line1":"1 69526U 26133U   26262.50241119  .00016011  00000+0  48401-3 0  9992","line2":"2 69526  53.1571 234.1811 0001835  91.7843 268.3369 15.34399355 16619","mean_motion":15.34399355,"eccentricity":0.0001835,"inclination_deg":53.1571,"raan_deg":234.1811,"arg_perigee_deg":91.7843,"mean_anomaly_deg":268.3369,"bstar":0.00048401,"rev_number":1661,"period_min":93.847797531171,"perigee_km":461.44986274784,"apogee_km":463.96045181957,"semimajor_km":6840.8421572837,"source":"CELESTRAK","updated_at":"2026-09-20T09:00:44.239047Z"}}}